Regional Weather Roundup
Issued by NWS Boston, MA

Home | Current Version | Previous Version | Text Only | Print | Product List | Glossary On
Versions: 1 2 3 4 5 6 7 8 9 10 11 12 13 14 15 16 17 18 19 20 21 22 23 24 25 26 27 28 29 30 31 32 33 34 35 36 37 38 39 40 41 42 43 44 45 46 47 48 49
000
ASUS41 KBOX 161010
RWRBOX

REGIONAL WEATHER ROUNDUP
NATIONAL WEATHER SERVICE TAUNTON MA
600 AM EDT TUE SEP 16 2014

NOTE:  "FAIR" INDICATES FEW OR NO CLOUDS BELOW 12,000 FEET WITH NO
SIGNIFICANT WEATHER AND/OR OBSTRUCTIONS TO VISIBILITY.  THE FOLLOWING
OBSERVATION LOCATIONS DO NOT REPORT PRESENT WEATHER...PROVINCETOWN...
SMITHFIELD...BLOCK ISLAND...KEENE...AND OXFORD.

MAZALL-161100-
EASTERN MASSACHUSETTS

CITY           SKY/WX    TMP DP  RH WIND       PRES   REMARKS
BOSTON         CLOUDY    56  49  77 S3        30.05S
BEVERLY        CLOUDY    51  49  92 NW3       30.05S
LAWRENCE       CLOUDY    51  48  89 CALM      30.08S
BEDFORD        CLOUDY    48  47  96 CALM      30.05S
BLUE HILL        N/A     55  48  77 S6        30.04S
NORWOOD        CLOUDY    47  45  93 CALM      30.05S
MARSHFIELD     NOT AVBL
PLYMOUTH       CLOUDY    53  48  83 CALM      30.06R
TAUNTON        CLOUDY    47  46  97 CALM      30.05S
NEW BEDFORD    CLOUDY    49  48  97 CALM      30.05R
$$

MAZALL-161100-
CAPE COD AND THE ISLANDS

CITY           SKY/WX    TMP DP  RH WIND       PRES   REMARKS
FALMOUTH       CLOUDY    52  50  93 CALM      30.06R
HYANNIS        CLOUDY    54  50  86 CALM      30.05R
CHATHAM        CLOUDY    58  52  80 CALM      30.07R
PROVINCETOWN   CLOUDY    57  48  72 S6        30.06R
NANTUCKET      CLOUDY    59  50  72 SE7       30.05S
MARTHAS VNYRD  MOCLDY    46  44  93 CALM      30.05R
$$

MAZALL-161100-
CENTRAL AND WESTERN MASSACHUSETTS

CITY           SKY/WX    TMP DP  RH WIND       PRES   REMARKS
WORCESTER      CLOUDY    52  45  77 SW3       30.05F
FITCHBURG      CLOUDY    51  46  83 CALM      30.06F
ORANGE         CLOUDY    49  48  97 CALM      30.05S
SPRINGFIELD    CLOUDY    50  48  93 CALM      30.03F
WESTFIELD      CLOUDY    52  49  89 CALM      30.04F
NORTH ADAMS    CLOUDY    50  48  93 CALM      30.04S
PITTSFIELD     LGT RAIN  50  48  93 NW3       30.02F
$$

RIZALL-161100-
RHODE ISLAND

CITY           SKY/WX    TMP DP  RH WIND       PRES   REMARKS
PROVIDENCE     CLOUDY    53  49  86 CALM      30.06S
NEWPORT        CLOUDY    55  51  86 CALM      30.05S
BLOCK ISLAND   CLOUDY    57  46  67 CALM      30.05F
SMITHFIELD     CLOUDY    48  43  81 CALM      30.05S
WESTERLY       CLOUDY    51  49  92 CALM      30.05F
$$

CTZALL-161100-
CONNECTICUT

CITY           SKY/WX    TMP DP  RH WIND       PRES   REMARKS
BRADLEY INTL   CLOUDY    53  48  83 CALM      30.04S
HARTFORD       CLOUDY    54  49  83 CALM      30.04S
BRIDGEPORT     MOCLDY    59  52  77 N6        30.02F
DANBURY        MOCLDY    51  49  92 CALM      30.04F
GROTON         CLOUDY    52  51  97 N5        30.04F
NEW HAVEN      CLOUDY    56  49  77 N3        30.03F
CHESTER        MOCLDY    54  50  87 CALM      30.04F
MERIDEN        CLOUDY    52  48  86 CALM      30.04F
WILLIMANTIC    CLOUDY    49  46  90 CALM      30.06S
OXFORD         PTCLDY    52  46  82 CALM      30.05F
$$

MEZ002-015-021-024-NHZ003-005-008-011-012-014-VTZ005-008-161100-
NORTHERN NEW ENGLAND

CITY           SKY/WX    TMP DP  RH WIND       PRES   REMARKS
PORTLAND ME    LGT RAIN  52  49  89 SW5       30.06R
BANGOR ME      MOCLDY    50  46  86 S6        30.03S
CONCORD NH     CLOUDY    49  49 100 CALM      30.05F
MANCHESTER NH  CLOUDY    53  46  77 CALM      30.04F
NASHUA NH      CLOUDY    49  48  96 CALM      30.06F
PORTSMOUTH NH  CLOUDY    52  49  89 SE5       30.04F
JAFFREY NH     CLOUDY    48  46  93 CALM      30.06S
KEENE NH       CLOUDY    50  43  76 CALM      30.05F
BURLINGTON VT  LGT RAIN  52  49  89 S6        30.01F
MT. WASHINGTON LGTSLEET  32  32 100 W28         N/A  VSB 1/16WCI  18
$$

NYZ052-076-161100-
EASTERN NEW YORK

CITY           SKY/WX    TMP DP  RH WIND       PRES   REMARKS
ALBANY         RAIN      54  51  90 CALM      30.03F FOG
NEW YORK CITY  MOCLDY    63  54  72 SE5       30.00F
$$

ANZALL-161100-
MARINE OBSERVATIONS

STATION/POSITION TIME  TEMP    WIND        PRES    VSBY  WAVE
                       AIR SEA DIR/SP/G                  HT/PER
                 (UTC) (F)     (DEG/KT/KT) (MB)    (MI)  (FT/S)
BOSTON BUOY      0950   60 61  180/  8/ 12 1017.9R         2/ 8
BUZZARDS BAY     0900          160/  7/  8 1018.3S
NANTUCKET SOUND  0950   62 68  160/ 10/ 12 1017.3S         1/ 3
MASS BAY-STELLWA 0904   61 60  150/  8/ 10   N/A    1 7/8  2/ 8
ISLE OF SHOALS   1000   56     270/  5/  6 1017.3F
S OF BLOCK IS    0908      65                N/A           1/13
$$

......................KEY.........................
  SKY/WX - SKY CONDITION/PRESENT WEATHER
  TMP    - TEMPERATURE IN FAHRENHEIT
  DWPT   - DEWPOINT IN FAHRENHEIT
  RH     - RELATIVE HUMIDITY IN PERCENT
  WIND   - DIRECTION AND SPEED IN MPH
  PRES   - MEAN SEA LEVEL PRESSURE IN INCHES OF HG
  WCI    - WIND CHILL INDEX
  VSB    - VISIBILITY IN MILES
  HX     - HEAT INDEX
  TC     - TEMPERATURE IN CELSIUS
  VRB    - VARIABLE WIND DIRECTION
  N/A    - NOT AVAILABLE



USA.gov is the U.S. government's official web portal to all federal, state and local government web resources and services.